TimeEDT,TemperatureF,Dew PointF,Humidity,Sea Level PressureIn,VisibilityMPH,Wind Direction,Wind SpeedMPH,Gust SpeedMPH,PrecipitationIn,Events,Conditions,WindDirDegrees,DateUTC
12:53 AM,79.0,73.0,82,30.09,10.0,East,6.9,-,N/A,,Clear,80,2012-09-27 04:53:00
1:53 AM,79.0,73.0,82,30.08,10.0,ENE,5.8,-,N/A,,Clear,60,2012-09-27 05:53:00
2:53 AM,79.0,73.0,82,30.07,10.0,East,4.6,-,N/A,,Clear,90,2012-09-27 06:53:00
3:53 AM,79.0,75.0,88,30.06,10.0,NE,5.8,-,N/A,,Clear,50,2012-09-27 07:53:00
4:53 AM,79.0,75.0,88,30.05,10.0,ENE,5.8,-,N/A,,Clear,60,2012-09-27 08:53:00
5:53 AM,78.1,75.0,90,30.07,10.0,NE,4.6,-,N/A,,Clear,50,2012-09-27 09:53:00
6:53 AM,78.1,73.9,87,30.08,10.0,ENE,5.8,-,N/A,,Clear,60,2012-09-27 10:53:00
7:53 AM,78.1,75.0,90,30.09,10.0,NNE,4.6,-,N/A,,Clear,30,2012-09-27 11:53:00
8:53 AM,79.0,75.9,90,30.10,10.0,NE,6.9,-,N/A,,Clear,50,2012-09-27 12:53:00
9:53 AM,79.0,75.9,90,30.12,10.0,East,5.8,-,N/A,,Clear,80,2012-09-27 13:53:00
10:53 AM,81.0,75.9,85,30.11,8.0,East,6.9,-,N/A,,Clear,80,2012-09-27 14:53:00
11:53 AM,82.9,75.9,79,30.11,10.0,ESE,4.6,-,N/A,,Clear,110,2012-09-27 15:53:00
12:53 PM,84.0,75.0,74,30.10,10.0,East,3.5,-,N/A,,Clear,100,2012-09-27 16:53:00
2:53 PM,87.1,73.0,63,30.04,10.0,SSE,5.8,-,N/A,,Clear,160,2012-09-27 18:53:00
3:53 PM,86.0,71.1,61,30.02,10.0,South,4.6,-,N/A,,Partly Cloudy,180,2012-09-27 19:53:00
4:53 PM,87.1,72.0,61,30.00,10.0,SW,8.1,-,N/A,,Clear,230,2012-09-27 20:53:00
5:53 PM,87.1,73.0,63,30.00,10.0,Calm,Calm,-,N/A,,Clear,0,2012-09-27 21:53:00
6:53 PM,87.1,70.0,57,30.01,10.0,North,5.8,-,N/A,,Mostly Cloudy,360,2012-09-27 22:53:00
7:53 PM,84.9,71.1,63,30.03,10.0,North,5.8,-,N/A,,Mostly Cloudy,360,2012-09-27 23:53:00
8:53 PM,84.0,72.0,67,30.04,10.0,North,4.6,-,N/A,,Scattered Clouds,360,2012-09-28 00:53:00
9:53 PM,82.9,73.9,74,30.06,10.0,NNE,8.1,-,N/A,,Partly Cloudy,20,2012-09-28 01:53:00
10:21 PM,82.4,73.4,74,30.07,10.0,East,17.3,-,N/A,,Clear,90,2012-09-28 02:21:00
10:53 PM,81.0,73.0,77,30.07,10.0,ESE,11.5,-,N/A,,Clear,110,2012-09-28 02:53:00
11:53 PM,81.0,73.9,79,30.06,10.0,ENE,9.2,-,N/A,,Clear,70,2012-09-28 03:53:00